TITAN 3C TRANSTAGE DEB, 36983

Orbit data source: Space-Track

TITAN 3C TRANSTAGE DEB, 36983 is space debris originally from a launch on Tue, 21 Dec 1965 UTC launched from the Air Force Eastern Test Range (AFETR). Debris objects in space refer to the collection of defunct objects orbiting the Earth. Examples of debris include non-operational satellites, rocket bodies, and fragments generated from explosions, collisions, or faulty payload assembly.

Loading next visibility...
Identifier
36983, 1965-108DP
Orbit
Active
Country
Flag of USUS
Related business
Manufacturer
Unknown
Mission
Spacecraft
Bus & Motor
Unknown
Mass
Unknown
Launch date (UTC)
1965-12-21 (60 years ago)
Launch vehicle
Unknown
Launch site
Air Force Eastern Test Range (AFETR)
Object type
Payload
Rocket body
Debris
Shape & HBR
Unknown shape, 0.3 m
Radar Cross Section
Medium (>0.1 m² and <1 m²)

Expand to show TLE details & history
Last TLE update: 1 week ago

TLE from 1 week ago
0 TITAN 3C TRANSTAGE DEB
1 36983U 65108DP  26154.98844358  .00040809  00000-0  75893-3 0  9992
2 36983  27.0225 114.8364 4370673 349.2177   3.8257  6.85542535600283
Epoch: 2026-06-03T23:43Z
TLE epoch observation values (Epoch: 2026-06-03T23:43:21.525Z)
Latitude
-0.00001°
Longitude
-133.44247°
Altitude
246.389 km
Speed
9.29 km/s
True Right ascension
07h 39m 20s
True Declination
0° 00' 00"
Sunlit
Object was in daylight at epoch
Visualization orbit readout
Latitude
Unknown
Longitude
Unknown
Altitude
Unknown
Speed
Unknown
Apparent Right ascension
Unknown
Apparent Declination
Unknown
Sunlit
N/A
Visualization observer readout
Local Sidereal Time
02:25:22
Azimuth
Unknown
Elevation
Unknown
Doppler factor
Unknown
Orbital elements
Apogee altitude
10,448.167 km
Perigee altitude
213.118 km
Semi-major axis
11,708.78 km
Eccentricity
0.43707
Inclination
27.0225°
RAAN
114.8364°
Arg. of periapsis
349.2177°
True anomaly
10.81914°
Mean anomaly
3.8257°
Eccentric anomaly
6.78372°
Mean motion
1.71307 °/min
Orbital period
210.15 mins
BSTAR
0.00075893
Loading maneuver chart data...
Computing Atmospheric mass density...

Documentation

Showing up to 5 results
|